Volver al catálogo

OPS 4682 DEB

ActivoPO
NORAD 38367·DEBRIS·🇺🇸 United States

Lanzado Apr 3, 1965 desde Vandenberg Space Force Base

Loading…

Próximos Pases (próximas 24 horas)

TLE

ActualizadoSource: Space-Track

Época: Sep 14, 2026, 06:51 UTC

1 38367U 65027BU  26257.28589916 -.00000096  00000-0 -35687-3 0  9996
2 38367  90.2512  12.7781 0033572 257.1313 102.6056 12.96736340320428

Sigue OPS 4682 DEB en tiempo real con AllMySat

Download on the App Store